Theta_e
293 286 283 283 285 286 288 288 288 289 288 288 286 285 283 282 283 286 287 289 290 287 286 286 285 285 286 287 289 291 290 292 292 292 293 294 295 297 299 302 311 321 322 325 327 329 331 331 330 332 333 333 335 335 334 336 338 339 338 339 339 340 341 341 341 341 338 337 338 338 338 337 338 338 340 341 342 342 342 342 340 338 337 336 337 336
293 285 284 287 289 289 290 290 289 288 288 287 285 283 281 283 282 286 287 289 291 287 285 287 284 285 286 288 290 290 290 290 291 292 292 294 295 295 297 299 301 312 322 325 326 328 330 331 328 328 329 331 333 338 339 339 339 339 338 339 338 340 340 341 341 342 340 339 339 338 338 338 338 338 338 338 340 342 342 342 340 338 337 336 337 337
286 283 287 290 292 291 290 290 290 288 288 288 285 283 283 283 284 288 289 290 290 288 283 284 285 286 287 288 290 289 290 291 292 293 293 293 294 295 295 297 298 302 305 313 324 327 326 327 326 327 329 330 334 339 341 341 340 339 339 340 339 340 340 340 341 341 340 340 340 339 338 339 338 338 340 339 341 342 341 341 340 339 338 336 337 336
283 284 289 292 292 290 290 290 290 289 288 285 284 282 281 284 284 282 285 287 290 287 283 285 285 286 288 288 288 290 290 292 293 293 294 294 294 294 295 296 298 299 300 301 306 323 326 324 325 327 330 334 339 341 340 339 339 339 339 340 340 340 340 340 340 341 341 340 338 338 339 339 339 337 338 338 340 341 340 339 340 339 338 336 337 336
285 290 294 292 291 290 288 288 287 286 282 285 286 284 283 284 285 284 285 288 289 289 288 286 283 284 286 286 287 289 291 293 294 294 293 294 295 296 298 298 299 298 299 300 304 312 329 328 328 332 335 337 337 340 340 340 340 340 339 341 340 340 340 340 340 340 339 339 337 338 338 338 337 337 337 336 337 339 340 339 338 338 338 337 336 336
290 294 296 295 293 292 289 287 288 287 282 283 286 287 287 287 286 287 287 285 282 280 284 285 276 279 282 284 286 288 288 289 291 290 291 292 293 293 294 295 296 301 300 299 302 312 325 333 332 335 336 336 337 340 341 341 341 340 340 341 341 341 341 340 340 339 339 338 337 335 335 334 334 334 334 334 334 336 337 338 338 338 338 337 336 336
291 294 295 293 292 291 290 288 289 290 284 283 284 288 288 288 287 287 286 284 277 277 282 286 277 274 278 283 285 286 287 288 290 290 291 292 293 294 294 295 296 297 298 299 301 308 326 334 333 334 336 336 337 340 342 341 341 341 341 341 341 340 340 341 340 340 339 338 338 336 336 336 335 334 335 336 336 337 338 338 337 337 337 337 336 336
294 294 294 294 292 290 288 286 290 292 287 284 290 292 291 289 287 286 286 284 280 284 285 285 280 276 277 283 286 287 286 287 288 289 291 292 292 293 294 295 294 296 296 298 298 308 319 332 335 333 336 335 335 338 341 341 341 341 340 341 341 340 340 341 340 340 340 338 337 336 336 336 336 335 334 335 335 336 337 337 337 337 336 336 336 336
294 291 292 291 291 290 288 291 294 295 291 289 294 294 292 292 290 289 286 283 282 281 280 281 284 278 276 283 285 285 284 286 287 288 289 291 293 293 294 295 294 295 296 297 298 308 318 327 335 335 334 335 335 335 335 339 341 341 341 341 341 340 340 341 340 339 339 339 337 337 336 334 336 335 333 334 334 335 336 336 336 336 334 335 336 336
295 294 294 294 291 288 292 293 293 294 290 295 295 296 294 293 291 289 285 283 282 279 277 279 284 278 278 284 285 285 283 284 286 288 289 291 292 293 294 294 295 295 295 297 297 302 319 326 334 337 333 332 333 335 335 334 335 339 341 340 340 340 340 341 340 339 339 338 338 337 336 334 334 334 333 334 333 334 335 335 335 335 333 334 335 335
295 300 301 295 292 294 293 293 295 294 294 295 294 291 290 289 287 287 286 284 280 275 279 282 283 281 275 282 284 282 284 287 287 288 289 290 291 292 293 294 295 296 296 297 298 300 315 328 333 338 334 331 332 333 335 334 337 338 340 340 339 340 340 340 340 339 338 338 338 337 336 335 334 333 332 332 332 334 334 334 334 334 333 333 334 335
294 294 293 295 300 298 296 293 295 295 295 293 289 288 286 284 285 283 280 284 276 275 281 283 283 283 275 280 282 286 287 288 288 287 288 290 291 292 293 294 295 294 295 297 298 300 309 326 331 326 324 331 335 335 336 337 338 339 340 340 339 339 339 340 340 339 338 338 338 337 337 335 335 334 333 333 332 333 334 334 333 334 333 332 334 333
288 289 293 295 301 295 292 290 291 293 292 292 287 285 280 276 277 271 278 273 274 275 279 284 285 279 279 284 285 287 287 288 290 290 290 291 292 292 292 294 295 296 295 297 297 299 306 317 325 326 324 323 329 335 337 338 338 339 339 339 338 338 339 339 339 338 338 338 337 337 337 336 336 335 334 334 333 333 335 334 334 333 332 331 332 332
283 291 292 293 294 299 294 286 285 285 288 288 285 282 279 273 272 271 273 274 275 280 285 284 286 280 284 286 288 288 289 290 291 291 292 291 291 292 293 294 295 296 296 297 298 299 306 315 321 324 326 326 324 332 337 337 338 338 338 338 338 338 339 339 339 338 338 337 338 338 337 337 336 335 335 334 334 334 335 336 334 333 333 331 332 333
279 278 284 291 286 295 294 291 289 288 288 288 289 285 281 278 273 270 274 270 272 275 280 287 281 278 278 280 290 292 294 294 294 294 293 294 294 294 293 294 295 295 295 297 298 299 302 317 321 323 324 325 325 324 329 336 338 338 337 338 337 337 338 338 338 338 338 338 337 337 337 337 336 336 335 335 335 335 335 336 336 334 334 333 333 334
284 283 290 294 294 295 291 295 295 292 288 289 289 288 282 281 283 277 278 277 276 277 276 280 279 282 283 290 293 294 294 295 296 294 294 294 295 295 294 294 294 295 296 298 299 299 299 308 324 324 324 324 325 325 324 326 336 338 337 338 338 338 338 338 338 338 338 338 338 337 337 337 336 336 336 335 334 335 335 336 337 335 334 334 334 334
282 280 289 293 295 292 292 295 294 294 279 284 287 281 284 291 287 281 280 283 282 279 276 281 281 283 288 291 292 293 293 293 292 292 292 292 293 292 292 293 293 295 296 298 299 300 301 302 321 328 327 326 325 324 323 321 320 325 335 337 337 338 338 338 338 338 338 338 337 337 337 337 336 336 335 335 334 335 335 336 337 337 336 335 334 335
281 284 291 289 289 293 296 296 295 295 294 288 282 286 293 294 293 283 276 279 277 274 276 281 278 278 280 277 289 290 290 290 291 291 292 291 293 293 292 294 296 298 299 299 300 302 303 304 313 327 329 329 325 325 325 324 324 322 321 324 334 337 337 338 338 338 338 337 337 337 337 337 337 336 336 336 335 336 335 335 336 337 336 336 335 335
288 281 287 291 291 294 297 295 292 294 297 291 289 296 285 277 279 284 281 274 273 273 273 277 279 279 281 280 286 287 288 289 290 291 291 291 292 292 296 298 299 299 299 300 300 302 303 304 304 315 326 329 329 326 328 329 326 325 324 325 325 328 338 338 339 338 339 338 338 338 337 337 337 337 336 336 336 336 335 335 336 336 337 337 336 335
289 281 284 293 291 293 292 289 281 286 293 296 295 292 293 288 283 280 280 281 279 274 273 276 277 274 284 284 288 287 289 290 290 290 290 290 292 293 296 298 299 299 299 300 301 302 303 304 304 304 315 324 326 327 329 329 328 326 326 329 329 329 333 335 338 338 338 338 338 338 338 338 338 337 336 336 336 335 335 335 336 337 337 337 337 336
282 287 279 288 293 291 284 288 285 287 285 287 288 286 288 287 291 288 285 282 279 275 275 274 273 277 282 289 288 289 290 290 291 291 291 291 292 294 297 298 299 299 299 300 301 301 303 303 304 305 310 321 323 325 327 327 326 327 328 329 330 330 331 334 335 338 338 339 338 338 337 337 338 337 337 335 336 336 336 336 336 337 338 338 337 337
284 285 281 285 285 285 286 292 292 291 292 290 287 285 287 284 281 278 277 286 283 279 276 275 274 280 286 292 290 290 290 291 293 293 292 292 293 294 297 297 299 299 299 300 301 301 302 304 304 304 308 320 323 322 325 326 327 327 328 328 329 330 331 331 332 335 339 339 338 337 337 337 338 338 337 335 336 336 336 336 336 337 338 337 338 338
290 284 284 282 284 285 289 293 295 294 295 293 292 287 288 287 286 282 275 278 282 281 283 279 274 277 288 290 291 291 292 293 293 293 292 293 293 294 296 297 298 299 300 301 300 301 302 303 304 304 307 318 323 323 324 326 327 327 327 328 329 330 330 330 331 335 338 339 338 337 338 338 337 337 336 335 335 336 336 337 337 337 337 338 338 338
297 284 283 285 288 290 292 294 295 295 292 291 293 294 289 284 286 284 283 283 279 280 279 278 274 279 288 291 293 293 293 293 294 293 292 293 294 296 295 296 297 299 300 300 299 300 301 302 304 304 304 318 324 324 324 325 327 329 330 329 329 328 330 331 332 334 337 338 338 338 338 337 337 336 336 335 335 335 336 337 337 337 338 338 338 338
286 287 284 280 281 283 286 288 288 292 293 287 287 291 292 291 289 287 286 287 280 281 281 278 273 278 286 292 291 292 292 292 293 294 294 293 295 295 294 296 297 298 299 300 300 300 300 301 303 303 304 313 327 328 328 328 329 330 333 335 334 332 331 333 336 338 338 338 338 337 337 337 337 336 336 335 335 335 336 337 337 337 337 338 338 338
288 285 283 279 276 274 275 276 279 283 285 288 290 290 290 288 287 285 281 282 278 282 283 278 277 284 288 290 290 291 292 293 294 295 296 295 294 294 295 296 296 297 298 300 300 300 300 301 303 302 302 305 323 327 330 331 332 333 333 334 336 338 338 338 339 339 338 338 337 337 337 336 336 336 336 335 335 335 336 337 337 337 337 338 337 338
282 286 283 283 282 281 283 285 288 289 287 284 287 289 287 288 289 287 285 282 278 282 281 283 283 284 286 288 288 291 292 292 293 294 295 295 295 295 295 296 295 296 298 300 300 299 300 300 301 302 302 303 313 326 329 332 333 333 331 329 326 328 330 328 325 327 336 338 337 336 336 336 336 336 336 336 336 336 336 337 337 337 337 338 338 338
283 282 284 285 286 287 288 288 290 290 286 287 287 286 287 287 287 285 282 280 285 282 278 285 286 284 285 289 289 289 291 292 293 293 295 295 296 295 295 295 299 297 298 298 298 299 298 299 301 302 303 301 308 323 328 330 331 330 330 331 330 329 327 326 325 324 323 324 335 336 336 336 337 337 337 337 337 337 336 337 338 338 338 338 338 338
282 282 285 285 286 289 290 290 291 290 289 288 288 286 285 286 286 284 284 285 285 281 278 284 286 284 287 290 291 290 291 291 292 293 295 296 296 296 295 294 294 295 296 297 298 298 299 299 300 301 303 304 302 311 323 325 325 325 324 328 331 332 330 327 326 325 325 324 323 331 337 337 337 337 337 337 337 337 337 337 338 338 338 337 338 339
286 283 286 285 285 287 288 290 292 290 289 288 286 286 287 286 285 286 286 287 286 284 285 285 286 286 289 290 291 291 292 293 293 295 295 295 296 297 295 294 294 295 295 296 297 298 299 300 300 301 302 303 304 303 314 323 324 325 325 325 325 323 321 325 324 325 325 325 324 325 331 337 337 336 337 337 337 337 337 337 337 338 337 337 338 338
287 284 290 287 285 287 289 290 291 290 289 286 287 287 287 287 287 287 286 287 287 285 286 286 285 285 291 293 292 293 293 294 294 293 293 294 295 296 296 296 296 295 296 297 297 298 299 300 300 300 302 303 304 305 305 312 323 325 326 327 325 324 323 324 324 325 326 325 326 327 328 328 334 337 336 337 337 337 337 337 336 337 337 337 337 337
290 285 287 286 285 285 289 288 288 289 290 286 286 286 286 285 283 285 283 286 285 283 284 285 283 284 290 293 293 293 293 292 292 292 293 294 295 296 296 297 297 297 297 297 297 298 298 300 300 299 301 303 305 306 307 310 313 321 325 327 328 329 331 330 329 329 328 328 328 329 331 331 330 335 336 336 336 335 332 331 330 332 335 336 335 336
289 287 286 285 284 283 287 287 286 286 287 283 284 285 286 287 287 287 289 288 287 287 284 281 283 288 290 292 291 291 292 292 293 293 294 295 296 296 296 297 299 299 298 297 297 299 298 299 300 300 301 303 304 305 307 310 315 316 320 323 327 330 330 329 326 323 321 320 322 325 330 331 331 332 334 334 334 332 328 329 329 329 330 331 332 331
291 288 285 287 283 283 286 285 284 282 278 279 288 292 290 286 287 284 285 286 288 289 286 288 287 291 292 290 289 290 291 291 293 295 296 295 295 296 298 299 300 301 301 299 299 298 298 300 301 302 302 304 304 305 305 307 312 317 318 320 321 322 324 324 322 324 324 323 323 323 322 324 326 330 333 333 332 331 329 329 329 330 331 330 328 326
285 286 282 285 284 283 284 282 277 276 277 287 289 292 293 292 292 288 288 289 289 290 289 288 290 292 294 294 292 292 293 294 295 295 296 297 297 297 298 300 301 302 301 299 300 300 298 299 302 303 302 303 304 306 306 307 311 314 316 317 318 318 318 320 320 321 323 323 323 323 323 323 322 324 327 331 331 330 330 330 329 328 328 328 328 327
285 284 283 283 282 281 279 279 272 276 283 285 289 292 294 294 292 289 288 290 290 289 290 290 292 294 295 295 295 296 295 295 296 297 298 298 299 299 299 301 303 304 304 305 304 304 304 301 301 302 302 304 306 306 308 308 309 310 312 314 316 317 318 318 319 319 319 319 320 320 322 323 322 322 322 322 324 328 329 327 324 325 325 324 326 327
292 289 287 284 285 279 279 277 277 282 283 286 287 288 289 287 288 287 283 286 291 292 293 293 294 295 295 296 297 297 296 295 294 297 300 301 303 304 304 304 305 305 305 306 306 306 306 304 303 303 304 304 305 306 308 310 310 309 309 309 311 314 316 317 318 318 319 320 321 321 322 323 323 322 322 322 321 320 320 322 322 321 321 323 324 326
294 289 287 283 280 281 280 276 276 276 277 283 289 293 295 295 296 295 288 285 293 294 296 295 294 295 295 296 297 297 295 292 290 293 300 304 306 305 306 307 308 308 308 308 308 308 308 306 305 307 306 304 305 307 310 310 311 309 309 309 310 310 313 316 317 319 320 320 320 321 321 322 323 323 322 322 321 319 320 321 322 321 322 322 323 324
295 294 290 284 283 279 279 278 277 274 278 286 288 292 294 296 297 295 287 283 292 295 297 296 295 296 296 296 296 297 290 287 288 294 301 304 304 305 305 306 308 308 307 307 307 308 309 310 310 312 310 308 308 309 309 309 310 311 310 310 310 312 313 314 316 317 318 319 321 322 322 322 322 323 323 322 322 322 322 323 325 325 325 325 325 325
289 283 283 282 278 280 279 276 273 276 280 286 290 293 295 296 296 290 280 281 292 295 297 297 295 296 297 297 297 295 291 285 289 295 303 304 304 305 305 306 306 307 308 309 309 309 309 311 311 310 311 310 310 310 311 311 312 311 311 310 310 311 312 314 316 317 318 320 321 322 322 323 322 323 323 323 323 324 325 325 322 322 324 325 326 325
282 281 280 281 281 279 279 275 276 278 284 289 292 295 295 295 292 282 277 285 294 296 298 298 297 298 298 297 297 292 296 298 300 302 303 303 303 305 306 308 309 308 308 309 309 307 310 311 311 311 310 311 312 312 312 312 311 311 310 310 310 310 313 316 317 317 318 318 320 321 322 322 322 322 323 324 324 325 325 325 324 324 324 325 325 325
280 282 280 279 280 278 277 278 276 277 285 292 295 295 296 289 281 280 289 296 296 297 299 299 298 299 299 298 297 297 299 302 303 304 302 302 303 305 305 307 309 310 309 308 308 308 309 310 310 311 311 312 313 313 313 312 311 310 311 309 310 312 314 315 316 317 317 318 320 321 322 322 322 322 323 324 324 323 323 324 325 325 325 325 325 324
284 284 281 280 282 280 279 279 279 276 284 294 294 291 293 285 285 292 295 297 299 298 298 298 298 298 299 297 299 299 301 302 302 303 304 303 304 305 304 305 308 309 310 309 309 310 309 310 310 311 311 312 312 313 313 312 312 312 311 312 312 314 314 315 316 318 318 318 319 320 321 321 320 321 324 324 324 323 323 323 324 324 324 324 323 324
291 283 282 281 284 281 282 280 279 285 291 294 293 286 292 293 295 297 295 295 298 299 298 297 298 298 299 298 298 299 300 300 301 303 304 304 305 306 305 305 307 310 310 312 312 311 310 309 310 310 311 312 312 312 313 312 313 313 312 313 315 314 313 314 315 317 317 317 318 319 320 321 321 322 324 324 324 324 323 323 323 323 323 323 322 322
290 288 287 282 285 284 282 284 288 289 291 294 294 294 295 298 298 297 296 296 296 297 298 296 297 298 298 299 299 299 298 299 300 302 303 303 303 305 305 304 305 307 309 310 310 310 311 311 310 310 311 312 312 313 313 312 312 312 312 315 316 316 316 315 314 314 315 316 317 317 319 321 322 322 323 324 324 323 323 322 322 322 323 323 323 323
296 295 294 290 286 289 293 293 292 292 293 294 294 297 296 297 298 295 295 293 294 296 297 295 296 297 298 299 298 298 298 299 299 300 302 304 304 306 306 306 305 307 308 309 310 309 310 311 311 311 311 312 313 313 313 313 312 312 313 316 316 317 317 317 316 315 314 316 316 316 319 321 322 322 323 324 324 324 324 323 322 322 323 324 324 325
295 296 292 288 289 287 284 291 292 292 292 293 294 295 295 295 295 294 294 294 295 296 296 296 296 297 298 299 298 298 298 299 299 300 302 303 304 305 306 306 307 306 306 306 307 308 310 310 309 309 310 310 313 314 314 313 314 314 315 316 317 318 318 317 316 315 315 314 315 315 318 321 321 322 322 323 324 324 324 324 324 323 321 324 325 325
288 297 290 292 289 285 284 289 292 292 292 292 292 291 292 293 294 294 294 295 295 296 295 296 296 296 297 297 298 298 298 299 299 299 300 302 303 305 306 305 306 306 306 306 305 306 307 307 308 309 309 309 311 312 313 313 312 313 314 315 316 318 318 316 316 316 317 316 315 314 315 320 310 317 322 322 323 323 323 323 324 324 323 324 325 325
291 295 285 291 288 289 289 289 290 289 288 291 291 291 292 292 293 294 294 294 295 295 295 295 295 295 295 296 298 298 298 299 300 300 300 302 303 304 305 305 305 304 305 304 304 303 303 304 305 306 308 309 310 311 311 311 311 311 311 312 313 316 316 316 314 315 317 317 316 314 313 317 318 320 321 322 322 324 324 323 324 324 325 327 328 328
294 289 291 287 282 281 284 287 289 284 283 289 291 292 292 293 293 293 293 293 293 294 295 294 294 295 296 296 297 298 297 298 299 300 300 301 302 304 304 304 304 303 304 304 304 303 302 302 302 303 305 308 309 310 310 310 310 310 310 311 312 313 315 316 315 316 316 317 317 316 313 313 316 319 320 322 322 323 324 311 312 319 327 326 314 311
291 292 291 286 283 282 286 290 290 291 290 290 291 292 292 293 293 292 292 292 293 295 295 294 293 294 295 296 298 298 297 298 299 300 300 300 301 303 305 303 302 302 302 303 302 302 301 301 302 302 302 305 307 308 309 308 309 309 310 310 311 311 313 316 316 315 316 316 316 314 314 313 315 317 320 321 322 322 321 323 319 305 307 311 313 308
Wind_Speed
3 2 4 6 8 9 9 8 11 12 9 9 8 8 7 5 4 4 5 4 1 5 6 6 4 3 6 7 8 10 6 5 7 8 6 8 8 2 4 7 10 12 15 15 18 18 17 16 9 1 4 6 11 13 10 8 5 5 9 13 15 14 14 14 13 12 12 12 10 10 12 11 10 9 8 9 9 9 9 10 10 9 8 8 8 9
3 1 6 10 12 10 11 8 6 7 7 9 8 6 6 3 6 3 5 5 4 3 6 8 5 5 7 7 8 7 6 6 6 6 6 8 8 4 4 7 8 12 9 12 11 13 16 14 13 12 9 9 8 12 15 17 13 10 9 11 15 14 14 15 16 14 12 11 11 11 10 9 9 9 9 8 8 9 9 10 10 9 8 9 9 8
1 6 11 12 13 9 7 9 8 7 9 8 6 6 6 8 5 5 5 4 5 4 9 7 7 10 8 7 8 6 7 7 7 6 8 9 10 6 4 6 5 3 5 7 9 13 14 15 17 15 11 13 18 15 16 14 13 13 12 9 10 13 14 12 12 12 12 10 9 9 7 9 6 5 6 7 8 8 9 10 10 10 9 9 8 9
6 5 11 12 9 4 7 10 9 10 7 4 5 5 8 5 3 9 4 5 7 4 4 5 11 12 12 5 7 9 7 6 7 6 8 6 7 8 6 7 6 6 6 6 8 9 14 16 15 16 19 19 16 17 16 17 19 16 14 13 13 12 13 12 11 11 9 9 6 6 8 7 7 6 5 6 7 8 10 11 10 10 9 9 8 9
5 11 5 3 4 4 7 6 4 3 5 3 4 5 5 4 6 7 6 4 6 8 4 6 8 9 8 11 9 6 6 4 6 5 5 7 6 7 5 1 5 6 6 7 8 10 13 16 17 19 20 20 17 15 19 13 14 12 19 17 17 16 15 12 13 12 9 8 7 7 7 6 6 5 7 7 8 10 10 10 10 10 9 9 9 9
7 4 6 10 8 7 5 6 7 4 7 5 4 7 8 8 9 8 8 7 3 4 2 3 5 10 6 8 11 10 4 6 5 5 7 8 9 4 5 7 5 5 5 6 7 9 12 16 18 19 20 19 18 17 16 21 17 15 16 17 16 15 15 12 11 12 12 11 11 10 10 10 10 10 10 14 14 11 11 11 8 9 9 9 9 9
4 4 5 6 8 7 5 3 4 5 5 6 7 5 7 7 7 7 9 5 6 7 5 3 5 9 6 9 9 7 6 10 8 7 9 8 9 10 7 7 5 4 4 4 5 5 7 11 16 18 17 19 20 19 16 16 23 22 17 17 17 15 18 20 17 16 13 12 11 13 14 13 13 13 10 6 7 9 8 8 10 9 8 10 10 9
4 11 10 9 5 4 5 6 4 3 4 6 4 9 9 9 8 8 7 5 6 4 2 4 5 5 9 14 6 9 10 11 9 10 10 11 8 9 8 8 6 5 5 6 5 7 9 12 15 18 18 15 10 7 10 15 13 18 20 19 18 13 12 16 18 18 17 16 15 14 12 11 11 11 8 7 6 6 7 9 10 9 8 9 10 10
4 7 7 9 9 8 8 5 6 2 2 6 6 8 12 11 12 13 8 6 4 4 8 5 3 2 6 14 3 4 6 11 13 9 9 12 11 8 9 7 6 6 7 7 6 7 9 13 16 16 18 19 20 15 8 8 12 15 17 18 17 15 14 14 17 18 19 17 17 15 12 10 8 7 7 7 7 8 8 10 9 10 9 9 10 10
1 1 8 8 6 8 4 4 4 6 7 3 5 11 11 9 6 6 4 4 4 2 10 5 8 6 10 15 12 1 3 9 8 9 9 11 14 11 10 9 8 5 5 6 7 8 10 13 17 20 20 20 19 18 20 17 11 12 13 16 17 16 14 15 18 17 17 18 16 15 13 13 10 8 7 8 9 8 8 11 11 10 9 9 9 10
5 9 9 4 3 1 1 3 4 5 7 7 6 8 8 5 4 4 3 0 3 7 5 7 7 7 9 16 8 4 8 8 7 8 7 7 10 9 6 7 8 7 6 7 8 8 11 14 16 19 20 20 19 18 19 19 17 15 15 15 17 17 14 15 17 18 18 16 16 16 17 16 14 12 10 9 10 9 10 12 12 11 10 9 10 9
8 5 2 0 1 1 1 7 6 5 9 9 3 3 4 6 2 1 2 0 3 9 1 6 5 10 7 10 1 5 5 5 7 9 10 10 12 11 8 8 6 5 5 7 9 8 9 10 12 4 4 12 20 19 20 19 20 17 15 16 18 15 15 15 16 17 17 16 17 18 19 17 15 14 12 14 14 13 13 12 12 10 9 10 10 10
7 6 3 4 2 7 3 8 9 9 6 6 5 4 0 3 2 3 1 2 7 9 2 4 10 3 14 12 4 5 5 6 8 10 10 11 14 14 9 8 8 5 5 6 8 8 8 10 12 14 17 13 15 18 21 22 19 18 16 17 17 17 16 16 16 17 16 15 15 16 17 17 15 15 15 14 13 11 12 12 12 12 12 10 11 11
5 8 2 3 5 2 7 6 7 7 4 8 6 3 1 1 1 4 2 2 4 4 0 7 8 6 8 9 2 4 5 6 8 10 9 7 10 11 11 10 8 6 6 7 8 8 10 10 10 12 17 16 10 14 20 21 20 17 16 18 19 19 18 16 16 17 16 16 15 14 16 16 16 16 15 14 13 13 12 11 13 14 13 12 13 12
10 5 6 8 3 5 9 3 3 6 8 8 3 4 5 3 2 3 4 5 5 4 3 3 3 6 1 5 5 9 11 12 11 10 10 9 10 11 9 9 9 8 6 7 6 7 9 9 11 12 11 12 13 10 10 14 18 18 18 18 20 18 17 17 17 16 17 15 14 13 12 13 13 14 14 13 12 12 12 11 13 13 12 12 12 12
4 8 8 1 5 8 8 3 3 6 8 7 2 4 2 6 3 7 1 0 2 3 4 4 5 2 5 6 12 11 12 16 16 10 7 11 12 13 10 9 8 8 5 5 6 8 7 9 9 11 11 11 11 16 12 12 9 16 17 19 21 21 19 18 17 16 17 16 14 14 14 14 13 12 12 11 10 11 12 12 13 13 13 11 11 10
3 6 2 9 6 6 6 5 10 1 1 3 4 1 1 3 2 2 1 1 1 1 9 2 6 6 7 12 11 13 11 11 8 6 6 7 8 10 10 7 6 7 7 6 6 4 7 7 9 11 14 14 13 13 15 16 11 9 4 12 18 18 18 18 19 18 17 16 15 15 15 14 13 13 14 14 15 15 14 13 12 12 12 11 10 10
0 13 13 5 9 2 2 10 11 4 6 3 3 2 4 6 4 3 3 1 2 5 4 4 7 4 0 9 4 8 7 7 8 8 8 7 7 8 5 4 4 5 7 6 4 5 8 2 10 10 12 17 19 17 18 21 18 12 3 5 8 15 17 17 16 17 16 17 17 16 16 15 15 15 15 14 14 13 12 12 11 10 10 12 12 11
1 8 4 3 5 7 13 9 8 3 7 1 3 3 2 3 2 1 0 3 3 3 4 4 6 6 5 8 5 9 9 10 11 10 8 9 8 5 5 6 3 4 6 8 8 7 9 8 3 7 10 14 19 25 21 20 18 16 13 9 7 10 11 15 14 14 13 15 13 14 16 16 15 14 14 13 13 12 13 14 13 13 14 12 11 11
1 1 6 1 4 10 8 2 5 10 5 4 3 2 2 2 4 4 4 1 1 3 1 4 2 4 5 4 1 9 11 10 9 9 7 6 5 5 4 6 5 4 5 7 9 6 6 8 6 5 8 11 14 16 17 16 15 18 14 15 16 8 8 9 12 14 15 15 14 13 13 13 13 13 13 13 13 13 14 15 15 15 13 14 12 12
1 0 6 8 4 5 6 2 4 3 7 7 5 3 1 1 1 2 1 3 3 1 2 4 8 3 5 2 5 10 11 11 8 10 8 6 5 5 4 5 6 4 4 6 7 8 7 6 7 9 7 10 10 13 14 13 15 15 13 14 15 19 15 9 12 13 13 13 14 14 15 15 14 14 13 13 13 14 15 14 14 14 14 12 13 13
1 1 5 11 12 7 7 4 2 1 1 1 1 5 5 5 2 2 5 2 3 2 3 2 9 7 5 4 7 11 9 8 9 9 10 6 5 5 5 5 6 7 5 4 6 8 8 7 5 7 8 10 10 9 11 13 13 14 14 16 15 12 12 14 11 13 13 13 13 15 15 15 14 14 13 14 14 14 14 13 14 14 13 14 14 14
1 1 1 8 7 10 14 15 2 4 4 4 4 3 1 4 4 4 4 3 1 4 1 1 2 7 4 5 7 6 7 9 10 10 9 7 5 5 5 6 6 5 4 4 5 7 8 7 4 6 7 11 13 13 12 12 13 14 16 16 15 15 16 16 16 14 14 13 14 16 15 14 14 14 15 15 14 14 14 14 14 13 14 15 14 14
2 0 4 9 9 11 7 4 3 2 2 2 2 1 0 3 5 6 4 1 1 2 3 2 3 7 5 5 5 5 10 12 10 8 8 8 5 5 6 6 6 8 7 4 3 6 8 7 5 5 5 8 11 12 12 11 12 14 14 15 14 16 19 18 17 17 16 15 16 17 15 15 15 15 15 16 15 16 15 14 13 13 15 15 13 13
1 0 1 7 8 4 2 1 2 3 1 1 6 4 3 8 10 11 10 2 3 7 8 4 6 7 4 5 8 11 11 11 12 14 10 9 9 7 4 4 5 6 7 8 7 7 9 9 6 4 6 5 10 11 11 10 10 11 13 14 16 16 17 17 17 17 17 16 17 16 15 16 15 16 17 16 15 16 15 15 14 13 15 14 13 13
1 1 1 5 9 12 12 13 14 11 11 9 6 7 10 14 14 10 4 3 6 0 6 3 5 7 9 7 10 9 12 14 15 16 16 11 10 11 10 8 5 6 7 8 8 8 9 9 8 4 4 5 5 7 8 9 10 9 7 10 10 12 14 16 16 17 17 17 17 16 17 16 15 16 17 17 16 16 15 14 13 13 13 14 14 13
1 0 2 4 3 7 9 7 10 5 5 7 15 11 15 13 14 9 4 1 2 2 4 7 7 13 13 12 8 12 12 13 15 17 17 16 15 14 10 8 5 5 6 8 7 8 8 8 9 8 4 6 6 7 9 10 10 11 11 11 9 9 11 9 3 3 8 15 16 16 17 16 17 16 16 15 15 14 13 13 13 12 12 12 12 13
2 2 5 7 9 10 10 10 14 9 6 8 10 14 14 13 12 9 12 9 11 8 4 5 12 12 13 11 8 13 14 13 14 15 16 16 16 15 13 10 7 5 7 7 6 7 8 9 7 7 7 3 7 7 9 9 8 8 10 13 11 10 8 8 10 14 9 11 11 15 15 17 16 15 15 14 14 13 11 11 11 10 9 8 10 12
1 2 3 1 11 7 6 10 10 8 2 3 6 11 12 13 11 9 5 8 9 6 8 13 14 13 11 9 11 13 12 13 15 16 15 15 13 13 13 12 10 7 6 7 7 8 8 8 7 7 7 5 4 6 6 6 7 6 3 6 9 12 13 11 13 14 14 14 11 14 13 13 13 13 13 13 12 11 10 10 10 10 10 12 13 12
1 3 5 2 10 13 11 7 3 4 2 1 8 8 9 10 9 6 5 8 10 6 10 11 13 12 8 9 13 14 13 13 14 13 13 13 14 13 12 11 12 11 9 8 7 7 8 9 7 6 6 4 2 3 5 7 9 9 12 14 11 5 5 5 11 13 12 13 16 14 14 12 11 12 12 12 12 11 11 11 11 10 11 12 11 10
1 5 1 1 5 13 12 5 0 2 3 1 7 10 13 10 5 5 6 6 13 11 15 15 11 11 6 7 12 13 12 11 12 13 13 13 12 13 13 12 12 12 13 11 7 7 7 9 9 6 6 2 2 1 4 6 8 11 12 12 14 17 18 16 14 13 13 14 15 17 15 14 13 12 13 13 12 11 11 10 9 9 10 10 9 9
2 5 2 0 5 9 9 6 10 7 2 2 7 12 11 12 12 9 7 4 7 10 13 13 12 13 15 14 15 14 14 13 14 15 14 13 14 14 14 15 13 12 12 12 8 6 7 8 8 7 5 1 1 2 2 5 8 8 10 12 13 14 14 14 15 15 14 15 16 17 17 15 15 14 13 12 12 12 11 9 9 9 10 11 11 10
5 1 5 3 6 6 10 8 9 7 1 1 5 6 8 9 7 9 4 3 6 7 8 10 11 13 14 13 15 17 15 17 16 13 14 17 16 14 15 15 16 14 12 11 9 8 8 8 9 6 5 3 2 2 4 3 4 8 12 11 11 10 10 10 9 9 7 3 4 8 7 10 14 15 13 13 14 12 11 11 11 10 7 6 5 3
3 3 3 1 2 6 11 10 6 3 8 7 4 3 2 4 7 7 10 11 12 6 7 8 12 16 14 13 14 17 17 16 15 18 13 11 14 15 16 16 16 18 16 14 12 8 7 8 7 6 6 6 3 3 3 4 4 8 8 9 7 7 8 9 9 11 13 13 16 14 5 5 10 14 14 15 14 13 13 14 14 14 12 10 9 9
3 2 3 2 2 5 7 7 4 7 2 4 3 5 5 5 6 9 11 11 11 12 15 15 16 17 17 14 13 16 17 19 18 17 18 12 9 11 13 14 15 14 15 12 12 11 7 9 10 8 8 7 4 1 1 3 6 4 4 5 5 5 6 7 8 7 7 8 7 9 14 13 2 8 11 13 13 13 15 16 14 12 11 12 12 12
5 3 1 1 2 2 2 4 3 2 3 3 7 5 5 8 8 7 10 6 8 10 13 15 17 19 16 15 13 13 14 17 17 14 12 10 7 8 6 8 13 15 11 11 13 15 15 12 10 9 8 5 2 3 1 4 5 4 4 4 3 3 6 9 9 9 9 10 10 10 8 9 10 7 3 8 7 9 13 11 6 6 6 7 7 9
5 2 2 2 1 1 2 2 4 2 2 2 4 6 7 8 9 7 6 5 4 7 11 14 16 18 17 14 16 16 17 14 9 7 7 8 7 4 8 10 10 12 11 10 10 13 12 12 10 7 5 5 4 4 5 4 3 3 3 3 5 6 4 4 8 11 12 12 12 13 13 12 12 11 8 3 1 6 6 3 1 1 1 4 9 9
4 2 3 1 2 2 3 3 3 2 3 6 5 13 10 5 7 3 2 6 5 7 8 12 16 19 16 15 17 18 16 13 18 14 17 18 15 12 7 5 11 12 10 11 10 11 9 4 6 7 7 8 6 4 4 4 3 3 3 3 3 4 6 6 7 8 10 10 10 12 12 13 13 13 14 15 12 10 12 12 13 12 11 9 8 9
2 0 0 2 2 2 2 1 2 1 1 0 10 13 15 7 5 4 1 4 9 11 16 13 16 17 16 13 17 15 15 16 12 13 14 17 16 14 13 9 4 10 12 10 10 10 10 7 4 4 4 4 6 7 4 3 2 1 2 2 2 4 5 6 9 9 9 8 9 10 11 11 11 11 13 14 13 13 15 13 12 12 13 13 12 11
3 1 4 6 3 1 1 2 2 0 2 3 8 11 14 7 3 3 5 10 14 16 15 13 16 17 17 12 12 11 10 12 15 17 17 14 13 13 14 14 13 11 11 9 7 6 7 7 7 7 6 7 7 6 6 4 1 1 2 3 1 3 5 7 9 9 8 8 9 11 11 10 11 11 12 12 14 14 14 11 6 7 9 10 11 11
3 3 3 2 1 3 3 2 1 1 1 4 9 11 14 6 0 9 15 12 14 15 15 13 15 15 15 14 10 11 8 6 8 13 17 20 18 18 18 16 12 8 10 11 10 9 8 7 5 6 6 6 7 5 4 3 4 4 4 3 2 3 5 6 7 7 8 7 6 8 11 10 10 12 12 12 13 14 13 12 12 12 12 12 11 11
2 1 2 2 3 2 1 1 2 3 4 4 7 11 10 4 7 12 7 8 10 13 14 13 13 14 13 15 11 7 9 7 8 8 16 20 19 16 20 19 18 14 6 5 8 8 7 7 6 5 5 5 6 5 4 4 4 4 5 3 4 6 6 4 4 5 6 7 9 9 9 9 9 10 11 10 10 11 12 11 11 12 13 11 12 12
1 1 3 3 2 1 1 1 2 4 2 2 7 6 3 5 4 7 7 10 10 10 11 12 10 11 11 11 13 12 11 12 10 11 12 17 16 18 21 21 19 17 14 13 11 8 6 7 7 7 6 4 4 4 4 5 5 5 5 6 7 6 5 5 5 5 6 7 9 9 10 9 9 9 8 9 10 12 13 12 13 12 12 12 12 13
1 1 2 2 1 1 1 2 1 3 8 2 3 3 6 2 4 7 5 9 10 7 8 9 11 9 10 12 13 14 11 11 13 11 10 15 16 12 20 22 20 17 16 15 13 13 10 7 6 8 7 6 5 4 4 4 6 7 7 10 7 5 4 4 5 5 6 7 8 9 10 10 11 11 10 11 11 12 12 12 12 12 12 12 12 12
2 3 4 2 2 2 2 2 7 7 6 7 3 6 5 9 5 5 4 5 8 8 6 8 12 12 12 12 13 13 12 14 13 13 12 11 15 12 15 20 21 18 17 15 15 16 12 8 6 7 9 8 8 7 6 4 5 8 10 10 7 8 7 6 5 5 6 7 7 8 9 10 10 11 11 11 11 11 11 12 12 12 11 11 12 12
1 4 4 2 5 2 4 8 4 4 5 7 3 7 6 6 7 5 5 6 7 6 6 9 10 11 13 14 13 13 13 15 16 13 11 10 13 12 10 14 21 22 20 18 18 17 12 9 9 9 10 9 8 8 6 5 4 8 9 9 10 9 8 8 8 7 7 7 7 8 8 9 10 10 12 12 11 12 12 13 13 12 12 12 12 12
0 1 3 1 2 1 1 2 2 5 5 5 5 6 4 4 4 4 7 6 7 7 8 9 10 11 13 12 15 15 16 16 15 15 11 8 12 11 11 13 14 18 21 21 19 17 13 12 12 13 12 12 11 9 8 7 6 6 8 10 10 10 9 9 10 10 9 8 7 7 8 10 9 9 9 10 11 12 12 11 11 12 11 11 12 11
2 2 1 1 2 1 2 4 5 5 4 4 3 4 5 7 8 6 6 6 6 6 7 9 10 11 11 13 14 12 14 16 16 15 12 7 10 9 10 10 11 11 14 18 19 19 17 17 16 14 13 12 11 11 11 10 9 8 8 9 10 11 11 11 11 11 11 12 8 7 8 10 13 13 10 11 11 11 10 10 10 11 12 12 12 11
3 1 1 2 1 4 3 4 5 5 3 6 6 4 4 4 6 7 8 9 9 8 9 10 10 10 11 13 13 13 15 16 16 15 15 7 8 9 9 9 9 11 11 14 15 18 17 16 18 19 15 12 11 11 10 9 8 7 9 9 10 10 12 13 13 12 13 12 9 8 9 10 10 10 10 10 11 12 12 13 11 11 10 12 12 14
0 2 1 3 3 3 1 3 3 3 3 7 7 7 7 7 7 7 8 10 10 8 9 12 11 11 13 12 12 12 14 14 16 16 15 11 8 9 10 10 8 10 11 10 9 12 15 17 22 20 17 12 10 8 7 7 9 9 8 9 9 11 13 14 13 13 13 12 10 9 8 9 10 11 11 11 11 11 11 12 16 15 14 13 15 18
1 3 1 1 2 3 3 4 2 1 0 3 5 5 7 8 8 9 10 11 11 8 8 11 13 13 14 15 12 12 14 15 16 15 15 12 10 8 10 10 11 10 10 12 15 17 20 21 18 16 17 14 11 9 8 9 10 12 12 12 13 14 13 14 13 12 12 11 11 11 9 9 9 10 10 10 10 11 11 10 10 14 18 17 18 22
Wind_Direction
143 155 227 232 238 241 248 208 212 233 239 254 266 274 276 270 263 256 261 265 17 330 286 288 247 244 275 271 279 290 310 309 298 299 291 289 292 248 227 196 191 200 204 207 203 194 195 191 170 198 269 219 168 161 184 261 196 214 189 163 166 165 158 159 165 173 174 179 181 187 193 191 184 183 175 180 184 180 178 180 181 179 177 175 173 176
71 299 266 243 240 236 248 247 232 255 256 243 242 223 253 248 277 251 284 306 312 317 285 294 303 252 242 268 278 281 308 291 274 276 275 272 273 261 198 240 204 201 205 209 207 201 194 191 173 170 199 238 210 179 179 189 192 187 194 186 169 166 167 167 171 172 175 181 186 184 188 183 179 178 175 175 179 179 175 176 179 180 176 176 174 176
181 214 239 241 246 246 271 280 267 251 263 270 258 262 272 270 252 258 274 299 312 311 276 284 299 289 268 246 264 256 255 262 259 244 259 263 267 260 185 217 228 234 247 232 205 188 196 196 178 170 196 219 210 192 184 189 182 180 180 189 181 170 169 169 167 168 177 176 171 172 170 175 171 172 171 162 172 171 174 178 180 183 179 174 178 177
332 280 248 253 263 251 258 264 269 271 270 243 295 302 269 242 296 297 268 292 282 243 266 280 287 287 289 257 241 253 237 249 254 257 264 254 248 251 221 188 179 182 197 229 242 202 196 198 192 185 184 200 213 187 186 187 188 178 178 176 176 176 171 166 167 170 166 156 136 140 147 154 160 159 153 150 166 172 172 182 183 184 177 177 177 178
240 262 279 317 272 227 254 268 277 288 303 262 226 246 261 288 259 229 276 268 276 281 283 294 297 287 279 297 290 264 260 246 269 272 288 285 257 259 285 255 194 196 190 201 221 226 196 194 196 191 195 190 198 200 175 188 191 187 178 179 177 172 170 171 170 160 147 135 130 132 132 136 124 128 158 156 178 181 180 177 186 185 175 177 178 179
297 283 3 340 337 340 355 339 320 306 314 318 257 228 236 243 261 264 270 292 337 317 295 236 295 272 291 277 270 288 328 307 293 319 292 286 292 270 265 262 249 219 200 195 203 211 207 198 194 196 196 192 191 194 195 173 190 197 185 176 182 169 159 169 173 162 158 162 158 153 156 169 177 179 179 189 184 180 182 184 176 178 177 177 179 182
250 295 347 327 329 326 341 326 293 19 333 329 281 267 257 261 265 265 273 294 277 269 276 140 205 278 306 288 272 285 297 287 290 290 283 278 282 286 269 266 248 248 258 201 212 216 202 208 199 199 199 196 190 190 195 196 180 184 188 183 178 186 173 171 172 171 167 165 168 175 181 185 188 188 194 178 166 174 174 171 180 180 182 182 178 185
315 322 333 330 330 324 329 325 310 4 321 275 295 317 332 325 299 270 258 227 243 246 251 147 136 255 292 269 236 254 269 277 281 281 280 276 264 274 276 272 267 251 231 243 211 208 206 204 205 199 196 192 202 212 204 194 196 184 181 181 182 184 182 166 167 174 176 173 178 181 184 185 191 193 178 168 165 161 163 175 181 181 184 185 182 182
307 309 325 317 321 317 305 286 308 3 266 266 308 309 302 304 304 294 271 260 248 335 286 131 124 264 255 271 239 217 247 268 272 271 274 279 275 263 267 262 260 247 247 236 238 216 209 206 207 206 196 192 184 180 191 232 204 193 187 183 181 180 176 168 172 176 180 180 177 180 180 186 192 175 156 151 154 162 170 174 183 185 182 186 187 185
285 255 293 286 284 282 263 299 306 313 305 270 278 281 275 281 294 300 322 317 308 318 285 156 170 238 270 269 271 148 256 269 273 279 271 266 269 271 275 276 274 264 256 254 243 230 218 211 207 200 198 199 193 185 180 187 222 217 195 184 180 180 179 175 175 181 185 182 178 173 177 184 180 165 153 158 167 170 172 179 183 186 185 186 186 188
282 283 268 259 253 222 277 304 332 318 280 282 273 268 283 294 285 292 256 253 1 265 290 173 185 175 268 263 239 237 238 241 265 275 268 270 284 282 258 265 274 275 258 260 252 231 224 216 209 202 196 199 200 188 186 186 190 206 195 188 184 183 180 178 180 182 188 187 179 178 181 183 178 173 162 166 175 173 177 183 186 187 187 183 186 186
312 312 12 301 297 297 36 331 321 323 313 319 307 297 343 308 345 7 321 160 250 262 128 188 208 178 237 286 67 203 243 227 228 248 264 277 277 278 284 283 279 276 266 271 271 253 228 216 206 160 282 233 197 190 186 185 185 192 199 188 183 183 182 182 182 186 188 189 188 183 179 181 181 175 177 182 183 183 183 182 184 185 180 187 186 187
329 295 305 333 211 64 332 352 330 331 322 46 3 14 194 273 33 336 23 275 218 246 216 53 19 289 232 255 293 330 243 257 258 253 257 265 273 279 278 278 284 280 280 274 275 258 235 210 203 191 189 209 241 197 185 183 182 184 187 188 184 185 183 182 183 186 188 192 195 189 180 180 178 181 185 187 185 183 184 183 182 182 188 183 187 191
275 281 360 325 340 54 8 354 317 335 339 323 311 283 2 308 278 241 233 263 291 250 120 43 357 274 282 289 261 299 293 278 288 287 281 265 263 269 274 275 275 283 280 281 274 258 238 219 207 199 190 183 219 233 195 179 180 180 184 185 187 187 183 181 183 186 189 194 197 195 186 183 180 184 186 188 188 187 186 184 187 187 186 187 190 186
332 358 302 357 311 336 339 298 269 255 297 285 214 183 201 171 167 262 187 231 234 255 302 358 41 223 181 228 300 307 299 293 271 265 274 280 280 279 267 272 277 280 284 284 282 265 248 236 200 189 195 192 189 252 258 201 182 181 183 182 186 185 185 184 184 185 188 193 196 196 197 189 184 184 187 189 190 186 186 186 188 191 187 187 188 188
218 244 280 81 285 320 298 310 307 326 301 277 230 73 92 232 132 245 162 30 313 335 308 169 217 206 229 287 301 302 302 298 293 298 311 303 298 290 284 272 265 270 293 315 304 294 266 256 219 196 182 187 190 196 235 281 229 189 186 186 185 182 184 184 184 187 188 190 193 194 194 194 189 188 188 188 188 191 190 189 189 190 191 190 184 184
328 286 241 310 297 269 262 334 313 22 282 278 5 223 172 350 94 36 302 179 225 133 250 180 276 291 323 298 298 287 289 291 309 318 315 316 311 297 282 296 322 333 325 317 300 282 283 240 245 208 186 182 183 191 198 218 269 305 246 202 187 186 182 183 186 187 187 188 190 196 197 193 190 189 189 190 191 192 191 189 189 189 192 187 185 186
133 290 305 303 325 314 10 326 292 279 220 326 303 192 112 51 58 114 237 173 215 237 268 163 245 265 53 287 303 314 311 327 330 325 326 333 347 13 350 324 327 332 310 277 283 326 341 293 231 226 196 179 180 191 194 196 194 232 245 344 263 196 184 188 187 187 188 189 192 193 196 196 193 192 195 196 194 190 187 191 190 186 186 192 191 186
82 306 306 206 255 306 332 337 334 85 57 41 307 165 16 286 321 168 308 243 227 228 273 266 246 253 200 257 299 289 304 311 310 314 330 339 343 335 324 328 330 295 323 340 343 343 340 350 325 259 236 193 178 185 198 194 188 195 200 186 298 287 214 189 186 190 193 193 192 193 195 195 194 195 197 197 194 189 190 191 191 191 192 190 187 188
62 219 294 204 6 331 318 360 13 312 7 98 121 73 299 187 237 171 208 262 105 257 12 278 149 261 200 227 268 308 300 292 295 310 311 310 310 295 308 321 329 323 321 325 332 332 327 327 326 271 246 235 192 186 191 188 186 190 196 177 181 210 270 234 202 191 195 197 196 196 196 198 199 198 197 195 192 193 195 193 192 192 189 191 190 193
149 176 283 285 356 322 347 51 340 350 328 340 18 292 316 204 322 284 281 203 185 212 199 295 298 252 252 220 300 286 284 296 304 296 297 306 293 287 290 298 314 309 309 318 315 318 319 317 324 323 258 223 232 196 185 179 184 191 188 189 188 184 192 228 229 210 201 197 200 198 196 197 197 199 198 197 196 198 199 196 192 192 194 188 192 191
86 158 247 302 333 341 287 293 55 347 79 343 241 284 293 282 272 264 247 142 244 158 220 227 266 265 246 304 285 270 279 288 286 293 298 303 285 277 284 290 297 308 299 280 305 312 314 314 322 323 284 229 209 224 197 183 185 187 187 190 192 188 179 184 224 228 212 201 201 202 201 199 199 200 201 200 198 200 198 196 193 193 188 191 195 193
146 197 230 291 267 281 280 289 302 189 145 257 236 270 218 270 279 255 269 224 203 241 246 185 311 277 255 222 247 265 274 285 287 294 292 285 259 244 258 275 281 275 277 286 293 304 302 301 305 302 281 231 205 206 209 195 185 186 190 191 189 181 181 186 199 222 217 204 203 204 203 201 200 199 202 202 202 202 200 198 196 190 190 194 194 196
130 72 288 278 266 251 278 329 102 130 138 269 214 129 142 276 256 256 255 283 242 165 197 199 234 258 268 271 273 282 303 300 295 286 278 280 262 220 244 270 293 311 315 301 288 294 299 301 300 311 310 238 218 206 199 200 196 189 190 190 189 193 190 190 199 199 212 211 208 203 200 201 202 201 202 205 204 204 202 199 198 192 195 194 192 196
34 356 162 297 318 316 143 298 59 282 30 7 302 308 325 319 295 278 253 193 241 209 205 165 250 274 278 329 331 316 316 315 313 314 309 305 302 291 253 262 292 303 310 321 317 304 302 303 303 308 295 256 218 206 199 197 203 199 189 185 190 197 198 195 196 198 204 209 208 203 204 204 202 202 203 205 206 207 204 202 199 196 196 193 193 194
87 215 64 318 338 339 342 346 337 337 334 315 305 339 338 343 331 326 298 178 229 247 189 196 258 274 302 321 314 329 337 329 329 325 322 309 296 299 304 302 301 301 299 303 303 302 292 288 292 288 275 272 223 189 197 197 190 194 202 198 192 192 195 199 196 197 201 204 204 206 204 204 204 205 205 204 207 208 206 204 202 198 199 196 194 191
145 239 177 198 231 297 293 288 272 279 300 322 327 340 344 343 339 324 292 47 312 326 245 251 268 298 302 313 319 336 335 325 321 320 320 321 314 302 290 283 265 268 281 283 283 282 288 289 283 285 275 248 235 216 198 190 194 190 189 189 183 180 178 170 123 310 243 208 207 206 203 204 204 205 205 207 208 208 206 206 205 201 201 197 195 189
76 336 246 222 234 242 256 259 280 307 311 302 335 347 343 346 346 12 37 360 312 288 270 11 326 308 303 306 323 328 324 320 316 312 314 320 317 306 295 287 272 258 270 270 271 272 274 277 282 286 293 270 235 220 208 201 185 191 197 194 194 193 181 178 182 179 208 289 249 213 210 206 204 203 205 207 209 209 206 205 205 205 198 190 199 198
138 266 275 232 295 274 249 260 277 298 198 241 357 345 349 347 353 14 26 9 342 354 324 316 314 314 313 310 316 313 314 309 305 303 305 304 304 316 312 294 284 276 271 277 273 278 281 281 281 281 283 298 257 221 211 190 173 168 207 249 219 200 193 185 188 193 187 190 247 261 227 213 206 204 205 204 206 206 204 201 202 200 195 197 202 204
69 243 247 216 290 306 307 288 276 285 282 188 9 344 352 360 344 334 332 10 358 334 317 312 311 304 301 309 315 311 310 304 300 299 300 306 315 319 315 308 302 299 289 279 282 286 283 279 275 270 278 292 319 216 214 208 204 198 188 196 208 227 268 207 199 201 202 198 200 222 253 234 211 205 200 200 199 202 200 202 201 199 198 200 203 207
125 274 176 298 326 305 307 305 144 229 201 108 349 353 353 350 344 343 316 318 349 350 341 333 315 308 295 304 303 310 304 298 298 303 305 305 307 310 310 306 301 296 293 282 276 281 279 277 279 275 264 261 323 297 193 222 230 213 202 200 200 201 198 199 204 205 198 205 210 210 209 233 233 207 201 195 197 196 198 199 194 194 197 197 197 198
146 272 2 87 322 301 309 341 326 344 153 64 346 350 346 347 349 342 322 319 356 327 313 325 339 330 312 314 308 308 310 313 310 309 308 307 305 304 305 302 298 294 289 283 279 270 265 265 274 272 264 254 223 280 259 186 212 227 225 208 204 204 194 195 200 200 203 208 215 214 210 203 218 218 197 193 195 189 180 166 166 178 191 192 189 190
179 258 318 356 320 276 294 327 327 326 99 29 338 327 324 317 324 314 286 284 265 296 310 332 310 306 296 300 308 310 313 312 307 307 312 307 301 301 298 295 294 294 288 275 279 281 273 263 264 275 263 237 224 225 249 216 178 216 219 218 215 198 190 189 183 165 152 121 356 316 271 226 215 209 198 194 190 181 167 164 165 167 159 152 127 105
159 192 256 111 266 284 301 320 331 22 27 1 274 227 232 302 320 322 314 307 289 307 295 282 276 295 308 307 306 306 310 305 303 298 289 279 292 297 296 297 298 299 296 287 293 295 273 270 272 260 253 256 244 226 231 248 219 198 212 220 203 188 191 177 182 189 198 197 194 197 210 289 254 222 204 192 191 184 180 179 180 179 177 164 142 129
183 202 246 166 241 271 308 340 32 33 348 239 246 243 225 259 266 267 273 280 281 300 311 320 316 319 331 324 297 296 298 293 295 295 296 289 263 263 272 287 301 308 304 312 320 313 284 278 281 266 272 276 268 275 96 282 251 234 178 172 175 184 183 190 176 183 185 199 223 218 192 179 199 284 244 222 197 191 190 189 188 181 179 173 173 173
261 229 213 277 212 315 2 355 52 328 246 296 280 281 268 253 254 269 281 255 270 287 301 318 317 315 328 334 322 311 303 298 298 294 284 282 274 262 267 300 315 315 320 315 322 324 323 305 267 244 249 256 282 308 169 230 237 197 206 170 182 213 197 181 181 180 175 178 182 203 208 192 174 170 316 328 289 218 194 183 172 187 175 175 193 189
213 104 121 271 159 287 279 249 232 276 336 342 326 336 344 332 316 326 334 299 232 270 299 320 317 320 329 338 339 333 325 307 298 348 358 335 331 289 284 297 286 288 299 302 308 312 308 303 296 283 317 331 321 315 287 262 255 192 202 188 185 168 221 240 195 182 186 193 185 182 186 194 195 191 174 177 75 339 8 45 106 111 350 179 187 196
159 190 209 103 274 152 306 329 337 1 347 348 331 314 322 299 293 268 145 287 253 266 305 326 326 324 332 334 341 341 332 349 12 353 345 342 338 330 317 259 278 291 294 292 291 279 282 287 320 325 326 320 304 269 264 268 228 196 168 208 225 191 187 191 230 222 198 186 181 181 187 195 203 206 200 184 169 183 229 200 187 191 191 198 208 209
155 176 15 144 302 41 3 346 282 269 266 108 323 317 309 326 307 146 132 320 332 332 331 335 324 325 333 338 337 342 353 10 348 339 328 331 333 333 329 320 244 256 271 264 264 281 298 310 302 275 300 314 312 307 313 312 320 258 260 239 180 182 197 207 216 221 225 210 189 191 190 197 193 184 175 169 173 182 202 214 204 188 185 189 190 198
43 22 31 28 12 353 333 16 312 199 351 299 300 308 308 309 136 180 350 359 328 328 319 326 323 324 326 339 338 341 7 2 348 340 326 320 327 336 341 331 322 307 292 287 280 270 286 301 326 329 325 315 298 297 310 325 8 337 296 275 222 165 201 217 219 220 222 220 202 196 199 201 194 183 176 175 180 188 198 197 176 156 174 185 188 188
1 335 57 354 295 323 43 298 331 330 275 269 292 308 304 330 342 2 10 313 316 315 314 318 318 321 326 332 347 334 333 321 325 342 343 348 344 345 347 341 330 303 296 304 305 308 304 303 302 294 290 283 280 282 291 316 327 306 283 271 284 253 229 220 223 219 207 204 212 212 208 208 202 195 193 185 178 180 185 186 182 173 177 184 190 192
348 278 300 48 17 328 253 330 251 244 237 238 298 317 308 353 25 355 288 282 297 303 306 313 317 322 335 329 326 306 301 291 288 341 1 352 344 344 346 344 344 343 320 287 297 308 303 303 300 291 284 277 290 301 312 330 324 303 303 282 254 253 252 248 235 220 209 194 192 203 214 215 210 202 201 194 177 177 185 190 185 183 184 183 186 191
251 27 292 309 285 349 21 295 342 10 279 220 328 328 344 54 303 242 289 296 296 300 309 317 323 320 335 328 322 315 316 334 342 328 356 352 350 355 349 352 352 352 347 342 333 324 315 308 302 298 294 295 298 310 314 332 316 304 293 280 265 254 253 254 249 237 219 205 197 199 204 205 202 203 204 194 186 182 186 182 184 190 189 187 188 193
185 89 320 305 167 248 342 3 71 224 265 273 69 329 306 237 254 289 291 297 305 309 315 323 326 325 325 330 328 326 321 332 344 347 346 351 347 5 359 354 353 353 355 356 351 337 323 302 297 301 304 310 316 317 316 319 306 298 293 279 275 272 256 240 238 238 229 217 210 201 201 199 198 201 201 198 191 192 188 185 187 188 189 190 191 195
219 144 180 204 235 163 200 226 244 257 253 269 187 233 245 279 290 279 263 262 303 312 320 336 333 334 336 336 334 338 339 344 343 346 349 344 340 350 8 1 350 355 0 358 354 345 338 320 306 312 315 318 320 318 313 303 288 288 282 283 289 280 279 269 243 219 224 223 218 210 205 203 199 197 198 197 191 194 196 192 186 190 194 191 195 196
233 157 156 148 269 238 273 223 254 290 268 281 246 229 254 286 297 297 323 336 324 312 320 341 334 338 341 343 348 348 349 345 343 344 354 350 345 349 350 11 5 357 360 2 359 350 336 351 18 10 354 334 324 318 316 311 292 281 277 279 274 272 273 272 274 258 228 222 216 211 207 208 209 200 198 195 193 199 198 193 189 193 192 194 196 196
305 130 144 183 254 124 272 292 231 270 301 325 329 312 290 266 265 294 340 336 324 326 336 350 344 339 344 343 352 345 344 344 345 345 351 349 352 347 355 1 9 4 358 3 359 347 349 359 12 10 3 354 351 344 333 321 307 291 289 281 278 269 255 255 254 259 257 235 214 208 203 206 210 205 201 196 198 203 204 198 194 194 193 191 193 196
328 233 81 251 267 140 242 256 279 293 284 289 320 327 334 333 326 328 334 334 331 324 343 354 351 348 347 350 347 345 341 344 345 345 346 348 348 346 357 0 360 7 10 0 355 355 1 7 7 5 360 352 342 338 330 321 313 307 305 298 286 270 256 243 237 242 248 246 221 194 200 208 211 204 197 197 196 203 209 207 200 197 195 189 192 195
238 4 270 204 220 274 312 311 307 335 358 340 336 330 318 319 335 336 336 345 346 343 351 0 357 346 349 346 345 347 349 343 343 343 345 346 345 346 350 356 360 5 8 11 0 357 5 3 8 6 353 347 340 326 311 306 304 313 317 312 306 282 255 241 230 227 234 237 231 208 197 204 208 208 205 198 201 206 202 196 198 204 207 206 196 193
26 276 270 49 11 333 280 278 326 43 308 323 334 326 333 349 3 345 344 351 350 348 353 5 358 347 346 348 346 347 349 343 341 343 344 343 342 343 349 349 354 0 0 359 357 4 7 8 14 5 349 325 304 289 294 323 340 329 321 325 323 307 265 239 224 218 223 229 231 221 194 202 210 212 209 203 200 206 220 223 207 199 199 206 204 206
193 237 150 229 205 254 255 262 247 141 251 293 302 319 345 353 2 355 346 348 347 347 353 7 358 351 349 343 343 349 348 344 341 340 343 347 344 343 348 344 349 355 354 351 358 6 13 12 5 348 340 334 326 319 328 343 345 350 345 339 337 321 286 237 219 213 212 217 225 221 200 196 209 214 212 208 205 205 209 213 224 224 217 213 200 199